Temperature
18 18 19 19 19 19 19 19 19 19 18 18 18 18 18 18 18 17 17 16 15 15 14 14 14 14 13 13 13 12 12 12 11 11 11 11 12 12 12 12 12 12 12
18 18 18 18 19 19 19 19 18 18 19 18 18 17 17 17 17 16 15 15 14 14 14 13 13 13 13 13 13 12 12 12 11 11 10 10 11 11 11 12 13 14 13
17 17 17 18 18 19 18 19 18 18 17 18 17 17 16 16 15 15 14 14 14 13 13 13 13 13 13 13 13 13 12 12 12 11 10 10 10 12 12 12 12 12 12
16 16 16 17 17 17 17 17 17 17 16 16 16 16 15 14 14 14 14 13 13 13 13 12 13 13 13 13 13 13 13 12 12 12 11 11 10 10 11 12 12 11 11
16 15 15 16 16 16 16 16 16 16 16 15 15 14 14 13 13 13 13 13 12 12 12 12 12 12 12 13 13 12 12 12 12 12 11 11 11 10 10 10 11 12 12
15 15 15 15 15 15 15 15 15 15 14 14 14 13 13 13 13 13 12 12 12 12 12 12 12 11 11 11 11 12 11 11 11 11 11 11 11 11 10 10 10 11 12
16 15 15 15 15 14 14 13 13 13 13 13 12 12 12 12 12 11 11 11 11 11 11 11 11 11 11 11 11 10 11 11 11 11 10 10 11 11 11 11 11 11 11
16 16 15 14 13 13 13 12 12 12 12 12 12 12 12 11 11 11 11 10 10 10 10 10 10 11 11 11 11 10 10 10 10 10 10 10 10 10 10 10 10 11 11
16 15 14 13 12 12 12 11 11 11 11 11 11 11 11 11 11 10 10 10 9 9 9 9 9 9 9 9 9 9 10 9 9 9 9 9 9 10 10 10 9 9 10
14 14 13 12 11 11 11 11 11 11 10 11 11 10 10 10 10 10 9 9 8 8 8 8 8 8 8 8 8 8 8 7 8 8 8 8 9 9 9 9 9 9 9
14 13 12 11 11 11 10 10 10 10 10 10 10 10 10 9 9 8 8 8 7 7 7 7 6 6 6 6 5 6 6 6 6 6 6 6 7 7 7 8 8 8 8
13 12 11 11 10 10 10 10 10 9 9 9 9 9 9 9 8 7 7 6 6 6 6 6 5 5 4 4 4 4 4 4 5 5 5 5 5 5 6 6 6 7 7
12 11 10 10 10 10 10 9 9 9 8 8 8 8 7 7 6 6 5 5 5 5 5 4 4 4 3 3 3 3 3 3 3 4 4 4 4 4 5 4 5 5 6
11 11 10 10 9 9 9 8 8 8 8 8 7 6 6 5 5 4 4 4 4 4 4 3 3 3 2 2 2 2 3 3 3 3 3 3 3 3 3 3 3 4 5
11 10 10 9 9 8 8 8 7 7 6 6 5 5 4 4 4 4 3 3 3 2 2 2 2 1 1 1 2 2 2 2 2 2 2 3 3 3 2 2 2 2 3
10 9 9 8 8 8 8 7 6 6 5 4 4 4 4 3 3 3 2 2 2 2 1 1 1 1 1 1 1 1 0 1 1 1 2 2 2 1 1 2 2 1 1
10 9 8 8 7 7 6 6 5 4 3 3 3 3 2 2 2 1 1 0 0 -0 -0 -1 -1 -1 -1 -0 -0 -1 -1 -1 -1 -1 -0 0 0 -1 -0 1 1 0 -0
8 7 7 7 6 5 4 4 3 2 2 2 2 2 1 1 0 -0 -0 -1 -1 -1 -2 -2 -2 -2 -2 -1 -1 -2 -2 -2 -2 -3 -2 -2 -2 -3 -2 -2 -2 -1 -1
7 6 6 5 4 3 3 3 2 2 2 2 2 1 0 -0 -1 -1 -1 -1 -2 -2 -3 -3 -3 -3 -2 -2 -3 -3 -3 -3 -4 -4 -3 -3 -4 -4 -4 -3 -3 -2 -1
5 5 5 4 3 3 2 2 2 2 1 1 0 -1 -1 -2 -2 -2 -2 -3 -3 -3 -3 -3 -3 -3 -4 -4 -4 -4 -5 -5 -5 -5 -5 -4 -4 -4 -4 -4 -3 -2 -1
6 5 4 3 3 2 2 1 1 0 -0 -1 -1 -2 -2 -2 -3 -3 -3 -3 -4 -4 -4 -5 -5 -5 -5 -5 -5 -5 -5 -5 -5 -5 -5 -5 -5 -5 -5 -4 -3 -2 -2
5 4 3 3 2 1 1 0 -0 -1 -1 -2 -2 -2 -2 -3 -3 -4 -4 -4 -5 -5 -5 -6 -7 -7 -6 -6 -6 -6 -5 -5 -6 -6 -6 -6 -6 -5 -4 -4 -3 -3 -3
3 3 2 1 0 -0 -0 -1 -1 -2 -2 -2 -2 -2 -3 -3 -4 -5 -5 -5 -6 -6 -7 -8 -8 -7 -7 -7 -7 -6 -6 -6 -6 -6 -6 -6 -6 -5 -5 -5 -5 -5 -4
2 1 1 0 -0 -1 -1 -1 -2 -2 -2 -3 -3 -3 -4 -5 -5 -5 -6 -6 -7 -8 -8 -8 -8 -8 -8 -7 -7 -7 -7 -7 -7 -7 -7 -7 -7 -7 -7 -6 -6 -5 -5
1 0 0 -0 -1 -1 -1 -2 -2 -3 -3 -3 -4 -4 -5 -6 -6 -6 -6 -7 -8 -9 -8 -8 -8 -8 -8 -7 -7 -7 -7 -7 -7 -7 -8 -8 -8 -8 -8 -7 -6 -6 -6
-0 -0 -1 -1 -1 -2 -2 -2 -3 -4 -4 -4 -4 -5 -6 -6 -7 -7 -7 -7 -8 -9 -9 -8 -8 -8 -8 -8 -7 -7 -7 -8 -8 -9 -9 -9 -9 -9 -9 -8 -7 -7 -6
Wind_Speed
3 6 9 9 9 10 10 8 7 2 4 3 3 3 5 5 5 7 6 8 9 10 9 10 11 9 11 13 11 10 11 10 5 5 10 12 11 14 14 12 13 15 13
6 9 10 10 11 10 10 9 9 8 2 3 3 2 2 3 4 3 5 7 8 8 10 11 11 10 10 12 12 10 10 10 7 8 8 8 11 12 12 13 15 15 13
7 8 10 10 11 11 10 10 11 10 9 5 2 2 2 2 3 3 4 6 7 8 11 12 12 12 10 12 13 12 13 14 12 12 10 6 6 4 6 8 11 12 12
7 7 8 9 9 9 9 11 11 10 10 10 8 7 4 3 4 3 4 6 6 7 8 11 12 12 10 12 13 13 13 15 13 11 14 16 13 9 10 10 9 9 12
7 6 6 7 8 9 10 10 11 11 11 11 9 8 7 4 3 4 7 8 8 8 8 8 8 9 10 12 13 13 13 13 14 13 12 13 14 18 16 15 15 12 12
7 5 5 6 8 9 9 9 11 12 12 12 11 11 10 9 9 10 10 8 7 7 11 11 10 8 8 10 12 13 13 13 14 14 14 13 11 12 15 15 16 17 16
7 6 5 5 6 8 8 8 10 11 11 11 12 11 10 10 10 8 7 7 6 6 10 10 10 10 10 10 10 10 12 14 15 15 14 14 15 15 16 18 18 18 15
7 7 6 5 5 7 9 10 11 11 11 11 11 10 10 8 7 7 6 7 6 6 9 10 10 11 11 11 10 9 10 11 12 14 14 13 14 14 16 17 18 21 20
7 7 6 5 6 9 9 9 10 11 11 10 10 10 9 9 8 8 8 7 8 9 12 11 11 12 11 11 11 10 11 10 10 11 12 11 12 12 12 13 15 19 23
6 6 5 5 7 8 8 9 10 8 8 8 8 7 8 9 9 9 10 10 11 11 12 13 14 14 13 13 13 12 13 13 13 12 13 13 12 12 11 11 12 14 18
7 6 4 7 9 8 8 8 8 8 9 9 8 8 8 8 7 8 9 10 10 12 12 13 13 13 13 13 13 14 15 14 14 13 14 14 14 12 12 11 12 12 14
7 6 8 8 8 7 7 8 8 8 8 7 7 7 8 9 10 11 12 12 12 13 14 14 14 14 14 14 14 15 14 13 16 16 15 15 14 15 14 13 13 14 15
7 8 8 8 7 7 7 7 7 7 7 7 8 8 9 10 10 11 12 13 14 14 15 15 16 16 15 15 15 14 13 15 15 15 14 13 14 15 14 15 14 14 15
9 8 7 6 6 7 7 7 7 6 7 7 8 8 9 9 10 11 13 14 15 15 15 16 17 17 16 17 15 15 17 15 15 13 11 11 13 15 17 15 15 16 17
9 8 7 6 5 6 6 6 6 7 8 8 8 8 8 9 10 12 13 14 14 15 15 16 17 17 15 16 19 20 20 20 16 10 10 10 14 18 17 17 17 17 16
9 8 7 6 5 4 4 5 6 6 6 6 6 8 9 11 12 13 14 15 15 16 16 16 17 17 16 23 28 26 22 18 14 14 15 15 16 16 24 26 24 23 22
8 7 6 5 4 4 4 5 5 6 6 6 7 9 11 12 13 13 14 14 15 15 15 15 16 17 18 26 31 29 17 15 15 15 17 18 16 16 19 24 27 26 28
7 6 4 3 4 3 3 3 4 5 5 6 7 10 11 12 12 12 13 13 13 13 14 15 16 16 18 28 29 25 17 15 14 14 16 17 14 16 22 21 22 23 23
7 5 4 3 3 3 3 5 5 6 8 8 9 10 10 12 13 13 14 13 13 14 14 14 15 16 18 25 26 26 16 15 16 16 17 17 17 24 30 24 23 25 23
6 5 4 3 3 4 5 7 7 8 8 9 9 9 9 11 12 13 12 12 13 14 15 16 15 17 18 22 29 28 14 14 14 14 15 21 25 31 34 25 23 22 22
6 6 4 3 4 5 6 7 7 7 8 8 8 8 8 10 11 11 12 13 14 14 14 15 15 15 16 20 28 30 16 14 14 13 13 15 30 36 36 30 19 21 24
5 5 3 3 4 5 6 6 7 8 8 8 9 9 9 10 11 12 12 12 13 13 14 14 14 12 13 19 24 29 27 24 17 15 14 17 33 36 32 24 24 30 25
5 3 2 2 3 4 4 5 7 8 8 8 9 9 10 10 10 10 12 12 11 11 12 13 13 13 13 15 24 27 29 28 20 16 23 29 32 28 21 25 29 23 14
4 2 2 3 4 4 5 6 7 7 7 9 10 10 9 11 10 9 10 11 11 11 12 13 14 14 13 12 13 14 17 21 18 17 20 25 24 22 21 20 17 12 13
3 2 2 3 5 6 7 7 7 7 8 9 9 9 8 10 10 11 11 12 12 14 16 14 14 14 15 18 26 23 18 16 19 20 12 12 14 15 14 14 14 13 13
2 1 2 4 5 6 8 7 7 7 8 9 9 9 10 9 10 12 15 19 20 26 26 26 22 18 22 29 32 31 29 27 28 18 12 12 14 15 15 16 16 16 16
Wind_Direction
53 29 21 12 15 19 25 26 27 318 188 163 171 193 226 233 235 234 234 228 228 228 226 239 245 233 237 244 237 237 246 249 228 242 265 261 252 252 253 251 250 250 247
42 24 19 17 19 21 21 22 20 12 31 162 155 161 197 236 246 245 246 245 241 238 239 241 247 242 240 248 245 238 246 251 222 229 262 272 269 252 245 243 246 250 249
56 28 19 16 17 24 20 27 22 20 20 34 94 84 67 9 358 336 295 272 256 254 252 252 251 249 238 244 244 234 236 250 247 227 232 251 253 286 261 244 245 246 244
60 43 29 24 22 18 24 32 29 30 29 33 50 53 49 20 342 323 322 314 297 282 270 266 263 257 248 247 247 244 238 244 252 244 232 241 252 259 276 263 251 243 246
82 64 45 37 30 23 27 27 30 33 30 40 51 55 50 26 348 356 1 358 352 351 342 320 298 280 268 261 259 255 248 245 247 250 249 245 249 251 257 269 271 261 248
111 94 62 45 34 29 31 30 35 31 27 33 36 40 37 26 22 12 11 2 355 356 1 357 350 332 311 294 283 275 267 263 258 258 257 257 252 251 253 257 262 265 266
138 117 97 68 47 38 34 33 41 35 28 34 34 33 34 35 33 20 11 4 358 351 350 351 350 347 339 330 319 303 291 284 282 279 275 270 267 268 269 267 270 270 270
144 139 135 106 63 44 36 38 46 39 30 31 29 30 31 30 25 14 5 1 351 338 337 339 340 337 335 333 330 320 307 300 295 291 288 288 284 278 273 275 280 282 279
164 151 130 92 62 51 46 53 53 42 31 29 29 29 26 24 17 8 6 357 349 344 341 337 332 328 325 324 322 319 313 309 301 296 292 293 293 290 283 277 275 280 286
162 138 121 95 74 70 59 53 51 45 30 26 25 23 20 16 10 6 1 354 346 341 337 334 331 326 323 321 319 315 313 309 307 306 304 300 297 297 292 284 280 277 281
161 154 121 88 85 71 61 54 44 35 25 19 15 16 13 7 5 2 352 346 341 338 335 331 327 324 321 320 317 314 312 313 314 313 309 305 305 306 303 299 295 291 288
156 127 106 100 86 77 66 53 40 30 16 7 8 12 12 9 6 359 353 348 344 341 338 335 332 329 326 322 317 312 315 321 317 313 309 309 315 312 310 306 301 299 296
134 119 110 105 98 82 67 52 37 20 7 7 11 14 11 4 356 351 347 345 342 339 338 336 332 328 325 324 318 312 320 316 310 306 306 309 312 310 310 310 308 305 299
148 134 122 112 95 78 64 48 28 13 9 12 12 10 0 354 348 345 345 342 339 337 336 334 330 326 325 325 320 324 320 313 307 299 296 301 309 311 311 309 307 305 301
160 141 133 120 101 82 65 48 27 16 12 8 6 355 347 347 346 344 341 337 335 334 332 330 328 325 325 323 323 325 321 314 303 294 294 297 303 299 308 317 313 313 312
154 140 135 123 101 88 73 49 27 11 5 2 354 348 352 350 347 343 339 336 333 331 330 328 325 325 324 320 321 322 320 318 318 320 322 317 312 313 324 316 313 314 310
156 148 134 129 123 100 64 39 12 1 1 356 353 355 352 346 341 336 332 330 327 324 324 321 321 320 318 317 319 322 331 326 322 323 323 318 316 326 321 316 316 315 308
138 127 129 98 74 53 45 40 19 359 350 354 356 351 346 339 333 329 326 322 321 322 319 318 319 316 316 314 320 332 334 322 318 319 317 311 315 320 318 318 316 312 306
123 133 127 108 94 47 22 33 11 358 360 355 348 341 336 331 329 326 323 320 319 316 314 316 315 314 313 316 324 329 327 323 322 320 314 311 312 313 318 318 310 306 302
118 114 100 92 73 32 27 26 5 358 348 336 329 327 324 322 320 316 314 314 314 312 314 311 311 310 311 314 321 323 322 316 314 312 312 313 314 316 316 313 305 302 309
135 122 119 107 65 40 28 13 354 338 322 316 313 312 313 315 313 313 313 312 310 309 308 306 307 305 306 313 318 320 321 314 315 317 316 313 313 314 311 306 303 311 316
122 116 103 76 52 33 23 351 328 313 311 311 310 312 312 312 313 309 308 309 309 310 309 307 306 307 309 310 314 316 317 323 324 318 313 312 313 311 310 313 319 320 319
118 117 114 47 24 20 7 327 308 309 312 310 307 308 310 308 305 306 309 310 310 309 308 309 310 310 309 309 310 312 320 324 321 314 316 320 319 320 321 320 321 322 316
143 152 70 9 349 340 322 304 302 309 312 309 306 304 304 310 311 308 307 307 309 308 307 307 307 305 302 301 301 310 316 318 320 317 321 322 324 323 319 317 315 315 310
152 82 21 336 316 315 309 306 305 311 308 301 298 302 305 307 310 309 307 305 301 301 308 309 307 306 304 304 313 318 319 321 325 328 324 324 325 319 316 316 318 317 316
105 13 321 306 297 299 298 299 296 290 293 306 310 310 310 308 310 310 307 303 306 311 313 313 310 309 307 311 315 318 321 326 334 329 318 320 319 316 318 320 320 319 320
Height
1487 1485 1484 1482 1480 1479 1477 1476 1476 1476 1476 1478 1479 1480 1481 1481 1481 1481 1481 1480 1479 1477 1474 1471 1469 1467 1465 1462 1460 1460 1459 1457 1456 1453 1449 1446 1444 1441 1438 1436 1434 1432 1430
1487 1486 1485 1483 1481 1480 1478 1477 1476 1475 1474 1474 1476 1478 1479 1479 1479 1479 1478 1476 1474 1472 1469 1467 1465 1462 1459 1456 1455 1454 1452 1449 1449 1447 1443 1438 1434 1429 1428 1426 1423 1421 1420
1487 1487 1486 1484 1483 1481 1479 1477 1476 1475 1474 1474 1474 1475 1476 1476 1476 1475 1474 1472 1469 1467 1465 1462 1459 1456 1453 1451 1449 1447 1445 1443 1441 1439 1438 1432 1424 1422 1420 1419 1417 1415 1412
1489 1489 1488 1486 1484 1482 1481 1480 1479 1477 1476 1475 1474 1474 1474 1473 1472 1471 1469 1467 1465 1462 1460 1457 1454 1451 1448 1445 1443 1442 1438 1436 1432 1431 1427 1424 1421 1417 1411 1409 1408 1407 1404
1490 1490 1489 1487 1486 1485 1483 1483 1482 1480 1478 1477 1475 1474 1473 1472 1471 1469 1466 1464 1462 1460 1456 1453 1450 1446 1443 1440 1438 1436 1434 1430 1426 1422 1419 1415 1411 1408 1405 1398 1395 1393 1392
1490 1490 1490 1489 1488 1487 1485 1484 1483 1481 1480 1478 1476 1474 1473 1472 1470 1468 1465 1463 1461 1458 1455 1451 1448 1444 1440 1437 1434 1431 1428 1425 1421 1417 1414 1410 1406 1401 1398 1391 1386 1382 1380
1490 1490 1491 1490 1489 1488 1486 1485 1484 1482 1481 1480 1478 1476 1475 1473 1471 1468 1466 1462 1459 1456 1452 1449 1445 1441 1437 1433 1429 1426 1422 1419 1415 1412 1409 1405 1400 1397 1392 1385 1378 1374 1369
1489 1490 1490 1489 1488 1487 1486 1485 1484 1483 1482 1480 1478 1477 1475 1472 1470 1467 1464 1461 1457 1454 1450 1445 1441 1437 1433 1429 1424 1420 1416 1412 1408 1404 1400 1396 1392 1389 1386 1381 1374 1364 1359
1487 1488 1489 1489 1488 1488 1487 1486 1485 1483 1482 1480 1478 1476 1473 1471 1468 1465 1462 1458 1454 1450 1446 1441 1436 1431 1427 1423 1418 1413 1410 1405 1400 1395 1391 1387 1383 1380 1376 1372 1368 1363 1351
1485 1487 1489 1489 1488 1488 1487 1486 1485 1484 1482 1480 1477 1474 1472 1469 1466 1463 1459 1455 1451 1446 1441 1436 1431 1426 1421 1416 1411 1407 1402 1398 1393 1389 1384 1379 1375 1370 1366 1361 1358 1354 1349
1485 1487 1488 1488 1488 1487 1487 1486 1485 1483 1481 1478 1475 1473 1470 1467 1463 1459 1454 1449 1445 1440 1435 1429 1424 1420 1416 1411 1406 1400 1396 1391 1386 1382 1378 1372 1367 1362 1357 1353 1349 1343 1339
1485 1487 1486 1486 1486 1486 1485 1484 1482 1480 1478 1475 1472 1469 1466 1462 1458 1453 1449 1444 1439 1434 1429 1424 1418 1413 1409 1405 1401 1395 1390 1385 1380 1375 1370 1365 1360 1355 1351 1346 1341 1336 1331
1483 1483 1483 1483 1483 1483 1483 1481 1480 1478 1475 1472 1469 1466 1461 1457 1452 1448 1443 1439 1434 1429 1424 1420 1415 1409 1403 1399 1395 1391 1385 1380 1374 1369 1364 1359 1354 1349 1345 1340 1333 1327 1322
1481 1481 1480 1480 1481 1481 1480 1479 1478 1476 1473 1470 1467 1462 1457 1453 1448 1444 1439 1434 1429 1424 1419 1415 1410 1405 1399 1395 1391 1386 1380 1373 1368 1364 1359 1353 1349 1344 1339 1333 1327 1320 1314
1477 1477 1477 1478 1478 1478 1477 1476 1475 1474 1471 1467 1463 1459 1454 1449 1445 1440 1435 1431 1426 1421 1415 1410 1404 1400 1395 1391 1387 1381 1374 1366 1360 1356 1352 1347 1342 1337 1334 1329 1321 1313 1307
1474 1475 1475 1476 1476 1475 1474 1473 1472 1470 1467 1463 1459 1455 1451 1446 1441 1437 1433 1428 1423 1417 1411 1406 1401 1395 1389 1385 1381 1376 1368 1362 1356 1350 1345 1340 1334 1331 1326 1319 1313 1308 1302
1472 1473 1473 1474 1475 1474 1472 1469 1467 1465 1462 1459 1455 1451 1446 1442 1438 1433 1430 1425 1419 1413 1407 1402 1397 1389 1385 1380 1375 1370 1363 1358 1352 1345 1339 1333 1329 1323 1317 1309 1301 1296 1291
1471 1473 1474 1474 1474 1473 1469 1466 1464 1462 1458 1454 1450 1446 1441 1437 1434 1430 1425 1420 1414 1408 1404 1397 1391 1385 1380 1376 1371 1364 1357 1350 1345 1339 1334 1328 1321 1317 1311 1301 1291 1284 1279
1470 1472 1472 1473 1471 1469 1466 1462 1460 1458 1455 1451 1447 1442 1438 1433 1429 1425 1420 1416 1409 1404 1398 1392 1386 1379 1374 1371 1366 1359 1350 1344 1338 1333 1327 1321 1315 1310 1305 1296 1286 1277 1268
1469 1471 1471 1470 1467 1465 1462 1459 1457 1453 1450 1446 1442 1438 1434 1429 1424 1420 1416 1411 1405 1399 1393 1387 1381 1374 1369 1365 1360 1354 1347 1339 1333 1327 1321 1316 1309 1302 1296 1290 1281 1271 1263
1467 1467 1467 1466 1463 1460 1458 1456 1454 1450 1446 1442 1439 1435 1430 1425 1421 1416 1412 1406 1400 1393 1387 1382 1376 1369 1364 1359 1354 1349 1343 1335 1328 1321 1314 1308 1301 1293 1286 1281 1275 1267 1258
1464 1464 1463 1460 1458 1456 1455 1453 1451 1446 1442 1438 1435 1431 1425 1421 1415 1411 1406 1400 1394 1387 1381 1375 1369 1363 1358 1354 1348 1343 1338 1331 1324 1315 1308 1300 1293 1285 1278 1273 1267 1260 1251
1461 1460 1459 1457 1456 1454 1452 1449 1445 1441 1436 1433 1429 1424 1420 1415 1410 1406 1400 1394 1388 1382 1376 1371 1364 1358 1353 1347 1342 1337 1331 1324 1318 1310 1302 1295 1287 1279 1271 1265 1259 1251 1243
1458 1457 1455 1454 1453 1451 1448 1444 1440 1435 1432 1428 1424 1419 1414 1409 1405 1401 1396 1389 1383 1378 1373 1367 1361 1354 1348 1342 1337 1331 1324 1317 1310 1302 1295 1288 1281 1274 1267 1259 1252 1244 1237
1453 1452 1452 1451 1449 1447 1443 1440 1436 1432 1428 1423 1418 1413 1409 1405 1399 1394 1390 1385 1379 1376 1371 1364 1357 1351 1343 1337 1333 1327 1320 1313 1305 1298 1289 1282 1275 1267 1260 1253 1246 1240 1232
1449 1449 1449 1447 1444 1441 1438 1435 1431 1427 1422 1417 1413 1409 1405 1399 1393 1387 1382 1376 1374 1369 1364 1358 1353 1346 1341 1334 1328 1322 1316 1309 1302 1294 1286 1279 1271 1264 1256 1248 1241 1234 1227